Weather History for Harrison, AR

Change the Weather History Date:

Monday, January 21, 2013

  Actual Average Record
Temperature  
Mean Temperature 37 °F 37 °F  
Max Temperature 50 °F 47 °F 77 °F (1909)
Min Temperature 24 °F 26 °F -3 °F (1954)
Degree Days  
Heating Degree Days 28 28  
Month to date heating degree days 575 608  
Since 1 July heating degree days 1983 2207  
Cooling Degree Days 0 0  
Month to date cooling degree days 0 0  
Year to date cooling degree days 0 0  
Moisture  
Dew Point 13 °F    
Average Humidity 41    
Maximum Humidity 60    
Minimum Humidity 21    
Precipitation  
Precipitation 0.00 in 0.08 in 3.05 in (1904)
Month to date precipitation 1.27 1.76  
Year to date precipitation 1.27 1.76  
Snow  
Snow 0.00 in 0.20 in 11.00 in (1926)
Month to date snowfall T 2.4  
Since 1 July snowfall 0.3 4.2  
Snow Depth 0.00 in    
Sea Level Pressure  
Sea Level Pressure 30.33 in    
Wind  
Wind Speed 5 mph (NNW)    
Max Wind Speed 12 mph    
Max Gust Speed 17 mph    
Visibility 10 miles    
Events      
T = Trace of Precipitation, MM = Missing Value Source: NWS Daily Summary

Daily Weather History Graph

Daily Weather History Graph

Search for Another Location

Airport:

Trip Planner

Search our weather history database for the weather conditions in past years. The results will help you decide how hot, cold, wet, or windy it might be!

Date:

Astronomy

Jan. 21, 2013 Rise Set
Actual Time 7:20 AM CST 5:27 PM CST
Civil Twilight 6:52 AM CST 5:55 PM CST
Nautical Twilight 6:21 AM CST 6:26 PM CST
Astronomical Twilight 5:51 AM CST 6:57 PM CST
Moon 1:08 PM CST (1/21) 2:49 AM CST (1/21)
Length of Visible Light 11h 02m
Length of Day
10h 07m
Waxing Gibbous, 75% of the Moon is Illuminated
Jan 21
Waxing Gibbous
Jan 26
Full
Feb 3
Last Quarter
Feb 10
New
Feb 17
First Quarter

Hourly Weather History & Observations

Time (CST) Temp. Windchill Dew Point Humidity Pressure Visibility Wind Dir Wind Speed Gust Speed Precip Events Conditions
12:53 AM 30.9 °F 26.2 °F 17.1 °F 57% 30.27 in 10.0 mi NNW 4.6 mph - N/A   Clear
1:53 AM 28.0 °F 21.7 °F 16.0 °F 61% 30.30 in 10.0 mi NW 5.8 mph - N/A   Clear
2:53 AM 30.9 °F 24.3 °F 15.1 °F 52% 30.30 in 10.0 mi NNW 6.9 mph - N/A   Clear
3:53 AM 34.0 °F 28.0 °F 14.0 °F 44% 30.31 in 10.0 mi NNW 6.9 mph - N/A   Clear
4:53 AM 35.1 °F 29.3 °F 14.0 °F 42% 30.34 in 10.0 mi NW 6.9 mph - N/A   Clear
5:53 AM 33.8 °F 30.8 °F 12.2 °F 41% 30.32 in 10.0 mi NW 3.5 mph - N/A   Clear
6:53 AM 32.0 °F 27.5 °F 12.0 °F 44% 30.35 in 10.0 mi NW 4.6 mph - N/A   Clear
7:53 AM 33.1 °F 27.7 °F 12.9 °F 43% 30.36 in 10.0 mi NW 5.8 mph - N/A   Clear
8:53 AM 28.9 °F 25.2 °F 12.0 °F 49% 30.38 in 10.0 mi NNW 3.5 mph - N/A   Clear
9:53 AM 35.1 °F 32.2 °F 12.9 °F 40% 30.39 in 10.0 mi Variable 3.5 mph - N/A   Clear
10:53 AM 37.9 °F 34.4 °F 10.9 °F 33% 30.38 in 10.0 mi Variable 4.6 mph - N/A   Clear
11:53 AM 39.0 °F 33.4 °F 10.0 °F 30% 30.36 in 10.0 mi NNW 8.1 mph 16.1 mph N/A   Clear
12:53 PM 48.0 °F - 10.9 °F 22% 30.33 in 10.0 mi WNW 6.9 mph - N/A   Clear
1:53 PM 48.0 °F - 12.0 °F 24% 30.31 in 10.0 mi NW 8.1 mph - N/A   Clear
2:53 PM 43.0 °F 38.2 °F 12.0 °F 28% 30.32 in 10.0 mi North 8.1 mph - N/A   Clear
3:53 PM 45.0 °F 41.2 °F 12.9 °F 27% 30.32 in 10.0 mi NNW 6.9 mph - N/A   Clear
4:53 PM 37.9 °F 32.7 °F 12.9 °F 36% 30.32 in 10.0 mi NNW 6.9 mph - N/A   Clear
5:53 PM 30.9 °F 27.5 °F 12.9 °F 47% 30.32 in 10.0 mi North 3.5 mph - N/A   Clear
6:53 PM 28.9 °F 25.2 °F 14.0 °F 54% 30.32 in 10.0 mi North 3.5 mph - N/A   Clear
7:53 PM 28.9 °F - 14.0 °F 54% 30.32 in 10.0 mi Calm Calm - N/A   Clear
8:53 PM 27.0 °F 23.0 °F 14.0 °F 58% 30.35 in 10.0 mi North 3.5 mph - N/A   Clear
9:53 PM 28.0 °F 24.2 °F 14.0 °F 56% 30.35 in 10.0 mi North 3.5 mph - N/A   Clear
10:53 PM 24.1 °F - 12.0 °F 60% 30.35 in 10.0 mi Calm Calm - N/A   Clear
11:53 PM 24.1 °F - 12.0 °F 60% 30.35 in 10.0 mi Calm Calm - N/A   Clear